Terminal Aerodrome Forecast
Issued by NWS Cleveland, OH

Home | Current Version | Previous Version | Graphics & Text | Print | Product List | Glossary Off
Versions: 1 2 3 4 5 6 7 8 9 10 11 12 13 14 15 16 17 18 19 20 21 22 23 24 25 26 27 28 29 30 31

000
FTUS41 KCLE 280500 AAA
TAFCLE
TAF AMD
KCLE 280520Z 2805/2906 24008KT P6SM VCSH BKN013 OVC060
      TEMPO 2805/2807 28012KT 2SM SHRA OVC006
     FM280900 30010KT 5SM BR OVC012
     FM281800 34018G28KT P6SM BKN035=

USA.gov is the U.S. government's official web portal to all federal, state and local government web resources and services.